Content
SEND FEEDBACK

Daily
Averages
Monthly
Summary
United States of America

EDGEFIELD, SOUTH CAROLINA


Home > North America > United States > South Carolina
Elevation: 55 feet     Latitude: 33 47N     Longitude: 081 55W

WEATHER
 
SELECT A DAY
Number of Records: 134,744;   Date Range: 12/7/08 - 9/15/14
 
SHARE

PRINT THIS DATA

[ ← Previous Day ]
WEATHER ALMANAC - JANUARY 3, 2013
[ Next Day → ]
[ °C ]   °F
Weather ElementAverageHighLow
Temperature47.1 °F50 °F (12:35 am)42.8 °F (10:55 pm)
Dewpoint31.8 °F50 °F (12:35 am) (7:00 pm)
Humidity93.8 %100 % (12:35 am)76 % (2:55 pm)
Barometer30.20 in30.30 in (9:15 pm)30.12 in (12:55 am)
Wind Speed2.9 mph8.1 mph (12:35 pm)
Weather ElementAverage
Wind DirectionESE (110.4 °)

Weather ElementTotal
Precipitation---
Heating Degree Days18.6 (Base 65)
Averaged from 67 records on January 3, 2013
WEATHER CONDITIONS BREAKOUT
WIND DIRECTION BREAKOUT
WEATHER BY HOUR - JANUARY 3, 2013
[ °C ]   °F
Local TimeTemperatureDewpointHumidityBarometerVisibilityWind DirectionWind SpeedGust SpeedPrecipitationEventsConditions
12:35 AM50.0 °F50.0 °F100 %30.13 inEast (90°)4.6 mphOvercast
12:55 AM48.2 °F48.2 °F100 %30.12 inEast (100°)5.8 mphOvercast
1:15 AM48.2 °F48.2 °F100 %30.12 inESE (120°)3.5 mphOvercast
1:35 AM48.2 °F48.2 °F100 %30.12 inESE (120°)3.5 mph
1:55 AM48.2 °F48.2 °F100 %30.14 inSE (130°)3.5 mphOvercast
2:15 AM48.2 °F48.2 °F100 %30.13 inCalmOvercast
2:35 AM48.2 °F48.2 °F100 %30.14 inCalm
2:55 AM48.2 °F48.2 °F100 %30.14 inCalmOvercast
3:15 AM48.2 °F48.2 °F100 %30.14 inCalmOvercast
3:35 AM48.2 °F48.2 °F100 %30.13 inESE (120°)3.5 mphOvercast
3:55 AM48.2 °F48.2 °F100 %30.14 inCalmOvercast
4:15 AM48.2 °F48.2 °F100 %30.14 inCalmOvercast
4:35 AM46.4 °F0.0 °F30.14 inSE (140°)3.5 mphOvercast
4:55 AM46.4 °F0.0 °F30.14 inSE (140°)4.6 mphOvercast
5:15 AM46.4 °F0.0 °F30.15 inWest (280°)3.5 mphOvercast
5:35 AM46.4 °F0.0 °F30.15 inCalmOvercast
5:55 AM46.4 °F0.0 °F30.16 inCalmOvercast
6:15 AM48.2 °F0.0 °F30.17 inCalmOvercast
6:35 AM48.2 °F0.0 °F30.17 inCalmOvercast
6:55 AM48.2 °F0.0 °F30.18 inCalm
7:15 AM46.4 °F0.0 °F30.18 inCalm
7:35 AM46.4 °F0.0 °F30.18 inCalm
7:55 AM46.4 °F0.0 °F30.18 inCalm
8:15 AM46.4 °F0.0 °F30.18 inSSW (200°)3.5 mph
8:35 AM46.4 °F0.0 °F30.18 inCalm
8:55 AM46.4 °F0.0 °F30.18 inCalm
9:15 AM48.2 °F0.0 °F30.18 inCalmOvercast
9:35 AM48.2 °F0.0 °F30.19 inCalm
9:55 AM48.2 °F0.0 °F30.20 inWSW (240°)3.5 mph
10:15 AM48.2 °F0.0 °F30.20 inCalm
10:35 AM48.2 °F0.0 °F30.21 inCalm
10:55 AM48.2 °F0.0 °F30.21 inSW (230°)5.8 mph
11:15 AM48.2 °F48.2 °F100 %30.20 inSouth (190°)4.6 mphOvercast
11:35 AM48.2 °F48.2 °F100 %30.20 inSSW (210°)3.5 mphOvercast
11:55 AM50.0 °F50.0 °F100 %30.19 inSSW (210°)3.5 mphOvercast
12:15 PM50.0 °F46.4 °F87 %30.19 inWSW (240°)4.6 mphOvercast
12:35 PM50.0 °F48.2 °F94 %30.19 inWest (270°)8.1 mph
12:55 PM48.2 °F44.6 °F87 %30.18 inSW (220°)4.6 mphOvercast
1:15 PM48.2 °F44.6 °F87 %30.16 inSSW (200°)4.6 mph
1:35 PM50.0 °F46.4 °F87 %30.16 inWSW (250°)4.6 mph
1:55 PM50.0 °F44.6 °F82 %30.17 inWest (280°)6.9 mph
2:15 PM50.0 °F44.6 °F82 %30.15 inWest (260°)3.5 mphOvercast
2:55 PM50.0 °F42.8 °F76 %30.17 inWNW (300°)4.6 mphOvercast
3:15 PM50.0 °F42.8 °F76 %30.16 inCalmMostly Cloudy
3:35 PM50.0 °F42.8 °F76 %30.16 inCalmMostly Cloudy
3:55 PM50.0 °F42.8 °F76 %30.17 inCalmScattered Clouds
4:35 PM48.2 °F41.0 °F76 %30.20 inWNW (290°)4.6 mphClear
4:55 PM48.2 °F42.8 °F82 %30.20 inNW (310°)3.5 mphClear
5:35 PM46.4 °F42.8 °F87 %30.22 inWNW (300°)4.6 mph
5:55 PM46.4 °F42.8 °F87 %30.23 inNW (310°)3.5 mph
6:15 PM44.6 °F42.8 °F93 %30.23 inNW (320°)3.5 mph
6:35 PM44.6 °F42.8 °F93 %30.24 inCalm
7:15 PM44.6 °F42.8 °F93 %30.26 inNNW (340°)3.5 mph
7:35 PM44.6 °F44.6 °F100 %30.26 inNorth (10°)4.6 mph
7:55 PM44.6 °F44.6 °F100 %30.27 inNorth (10°)4.6 mph
8:15 PM44.6 °F44.6 °F100 %30.28 inNorth (10°)3.5 mphMostly Cloudy
8:35 PM44.6 °F44.6 °F100 %30.29 inNNE (30°)4.6 mphMostly Cloudy
8:55 PM44.6 °F44.6 °F100 %30.29 inNE (50°)6.9 mphOvercast
9:15 PM44.6 °F44.6 °F100 %30.30 inNNE (20°)4.6 mphOvercast
9:35 PM44.6 °F44.6 °F100 %30.30 inNorth (10°)6.9 mphOvercast
9:55 PM44.6 °F44.6 °F100 %30.30 inNNE (20°)6.9 mphOvercast
10:15 PM44.6 °F44.6 °F100 %30.30 inNorth (360°)6.9 mphOvercast
10:35 PM44.6 °F42.8 °F93 %30.30 inNorth (350°)4.6 mphOvercast
10:55 PM42.8 °F42.8 °F100 %30.30 inNNE (20°)3.5 mphMostly Cloudy
11:15 PM42.8 °F42.8 °F100 %30.30 inNE (40°)4.6 mphOvercast
11:35 PM42.8 °F42.8 °F100 %30.30 inNE (40°)4.6 mphOvercast
11:55 PM42.8 °F41.0 °F93 %30.30 inNNE (20°)4.6 mphOvercast
Hourly data recorded from KAIK, located miles away from Edgefield, South Carolina







STORIES FROM OUR PARTNERS